Weather in Dalaman

Turkey     36°45′56″N   28°48′25″E
temp.,
°C
wind,
m/s
gust,
m/s
humid.,
%
clouds,
%
prec.,
mm/h
press.,
hPa
HPBL,
m
15 august, mon
mon1500:00+23nne11760 0.0 100550
03:00+22n11770 0.0 100556
06:00+21n11770 0.0 100547
09:00+26sw01560 0.0 1006354
12:00+29sw43480 0.0 10071045
15:00+29sw54510 0.0 1007958
18:00+28ssw44600 0.0 1007601
21:00+25ene11750 0.0 100723
16 august, tue
tue1600:00+23ne11770 0.0 100863
03:00+22nne22730 0.0 100852
06:00+22n11650 0.0 100845
09:00+28wnw00460 0.0 1009301
12:00+30sw43460 0.0 1010867
15:00+30sw44450 0.0 1009608
18:00+29ssw32500 0.0 1008450
21:00+25ne11720 0.0 100932
17 august, wed
wed1700:00+23n22670 0.0 100847
03:00+24nnw11560 0.0 100741
06:00+24n22480 0.0 100642
09:00+30nw12340 0.0 1006262
12:00+33sw43330 0.0 1006757
15:00+32s44390 0.0 1005491
18:00+30sse33540 0.0 1005341
21:00+25ene11680 0.0 100520
18 august, thu
thu1800:00+26n22510 0.0 100434
03:00+26n33370 0.0 100339
06:00+26n33410 0.0 100342
09:00+32n12320 0.0 1004274
12:00+33ssw53300 0.0 1004668
15:00+33s44360 0.0 1003502
18:00+32s32460 0.0 1003353
21:00+26nne11720 0.0 100311
19 august, fri
fri1900:00+27n22420 0.0 100320
03:00+27n45350 0.0 100259
06:00+26n45380 0.0 100261
09:00+33n34290 0.0 1003325
12:00+36sw53270 0.0 10031610
15:00+33s46360 0.0 1003436
18:00+33sse33410 0.0 1004395
21:00+27ene11560 0.0 100411